Location: Bowman Observatory
(41.0326°N, 73.6210°W)
Time: 06:20:14
(UTC-04:00)

Cosmos 2297 - Visible Passes

Search period start: 30 June 2016 00:00
Search period end: 10 July 2016 00:00
Orbit: 835 x 860 km, 71.0° (Epoch: 29 June)

Date Brightness Start Highest point End Pass type
(mag) Time Alt. Az. Time Alt. Az. Time Alt. Az.
30 Jun 5.5 02:51:20 13° SE 02:54:53 23° E 02:59:12 10° NE visible
30 Jun 4.1 04:33:17 11° SW 04:38:38 50° WNW 04:44:12 10° NNE visible
01 Jul 5.5 02:38:35 15° SE 02:41:34 22° E 02:45:51 10° NE visible
01 Jul 4.1 04:20:31 14° SW 04:25:18 51° WNW 04:30:53 10° NNE visible
02 Jul 5.5 02:25:47 16° SE 02:28:15 22° E 02:32:28 10° NE visible
02 Jul 4.1 04:07:43 17° SW 04:11:58 53° WNW 04:17:34 10° NNE visible
03 Jul 5.4 02:12:57 18° SE 02:14:57 21° E 02:19:06 10° NE visible
03 Jul 4.0 03:54:53 20° SW 03:58:38 54° WNW 04:04:15 10° NNE visible
04 Jul 5.4 02:00:04 19° ESE 02:01:37 21° E 02:05:44 10° NE visible
04 Jul 4.0 03:42:01 24° SW 03:45:19 55° WNW 03:50:56 10° NNE visible
05 Jul 5.4 01:47:10 19° ESE 01:48:19 20° E 01:52:22 10° NE visible
05 Jul 4.0 03:29:06 28° SW 03:31:59 56° WNW 03:37:37 10° NNE visible
06 Jul 5.4 01:34:14 19° ESE 01:35:01 20° E 01:39:00 10° NE visible
06 Jul 4.0 03:16:10 32° SW 03:18:39 57° WNW 03:24:18 10° NNE visible
07 Jul 5.4 01:21:15 19° ESE 01:21:41 19° E 01:25:38 10° NE visible
07 Jul 4.0 03:03:11 36° SW 03:05:19 58° WNW 03:10:59 10° NNE visible
07 Jul 6.0 04:49:51 10° NW 04:50:48 10° NW 04:51:45 10° NNW visible
08 Jul 5.4 01:08:15 19° E 01:08:23 19° E 01:12:16 10° NE visible
08 Jul 3.9 02:50:11 41° WSW 02:52:00 60° WNW 02:57:40 10° NNE visible
08 Jul 6.0 04:36:16 10° NW 04:37:27 11° NW 04:38:38 10° NNW visible
09 Jul 5.5 00:55:13 19° E 00:55:13 19° E 00:58:53 10° ENE visible
09 Jul 3.9 02:37:09 45° WSW 02:38:40 61° WNW 02:44:21 10° NNE visible
09 Jul 6.0 04:22:43 10° WNW 04:24:06 11° NW 04:25:29 10° NNW visible
